Hourly Weather Roundup
Issued by NWS Central Illinois

Home | Current Version | Previous Version | Text Only | Print | Product List | Glossary On
Versions: 1 2 3 4 5 6 7 8 9 10 11 12 13 14 15 16 17 18 19 20 21 22 23 24 25 26 27 28 29 30 31 32 33 34 35 36 37 38 39 40 41 42 43 44 45 46 47 48 49 50
000
NZUS43 KILX 301110
HWRILX

AREA WEATHER ROUNDUP
NATIONAL WEATHER SERVICE, LINCOLN IL
600 AM CDT SAT APR 30 2016


CITY           SKY/WX    TMP DP  RH WIND       PRES   REMARKS
BLOOMINGTON    LGT RAIN  47  47 100 E15       29.96F FOG
CHAMPAIGN      LGT RAIN  51  49  92 E15       29.94F FOG
DANVILLE       LGT RAIN  50  47  91 E8        29.96S
DECATUR        LGT RAIN  52  49  89 E13       29.93F FOG
EFFINGHAM      LGT RAIN  55  55 100 E8        29.93S
FLORA          HVY RAIN  59  57  94 NE6       29.91F
GALESBURG      RAIN      46  44  95 E17       29.92F
JACKSONVILLE   LGT RAIN  52  50  93 E15       29.87F
LACON          RAIN      46  43  90 E10       29.98F
LAWRENCEVILLE  CLOUDY    58  55  90 E8        29.92F
LITCHFIELD     LGT RAIN  54  52  94 E13G18    29.87F
$$


CITY           SKY/WX    TMP DP  RH WIND       PRES   REMARKS
LINCOLN        LGT RAIN  51  50  96 E6        29.93F
MACOMB         LGT RAIN  47  46  99 E17       29.92F
MATTOON        HVY RAIN  53  51  93 E8        29.92F FOG
MT CARMEL AP   NOT AVBL
OLNEY-NOBLE AP LGT RAIN  55  55 100 E5        29.93R
PARIS          LGT RAIN  52  51  96 E10       29.96F
PEORIA         CLOUDY    47  44  90 E18       29.94F FOG
PONTIAC        LGT RAIN  48  47  94 E13       30.01R
RANTOUL        LGT RAIN  51  49  93 E12       29.96F
ROBINSON       LGT RAIN  55  54  95 NE7       29.93F
SPRINGFIELD    LGT RAIN  53  51  93 E10       29.90F FOG
TAYLORVILLE    RAIN      54  52  94 E12       29.90F
$$

...REGIONAL REPORTS...


CITY           SKY/WX    TMP DP  RH WIND       PRES   REMARKS
CHICAGO O`HARE CLOUDY    45  41  86 E8        30.06R
KANKAKEE       CLOUDY    47  44  90 E9        30.03F
MOLINE         CLOUDY    46  42  86 E14       29.95F FOG
MOUNT STERLING LGT RAIN  48  47  96 E16       29.85F
MOUNT VERNON   CLOUDY    57  54  88 CALM      29.90R
PITTSFIELD     LGT RAIN  53  52  97 E12       29.85F
QUINCY         LGT RAIN  50  48  93 E16       29.82F FOG
ROCKFORD       CLOUDY    45  38  76 E13       30.06S
$$


CITY           SKY/WX    TMP DP  RH WIND       PRES   REMARKS
BURLINGTON     RAIN      46  46 100 E16G24    29.89F FOG
CEDAR RAPIDS   LGT RAIN  44  43  96 E15       29.94F FOG
DES MOINES     LGT RAIN  46  42  86 E15G29    29.82F FOG
KIRKSVILLE     CLOUDY    50  47  89 E16G23    29.76F FOG
OTTUMWA        CLOUDY    45  44  97 E23G35    29.82F FOG
ST LOUIS       LGT RAIN  59  56  89 E13       29.82F FOG
$$


CITY           SKY/WX    TMP DP  RH WIND       PRES   REMARKS
TERRE HAUTE    LGT RAIN  53  51  93 E9        29.96F FOG
EVANSVILLE     LGT RAIN  60  53  77 NE5       29.89F
INDIANAPOLIS   CLOUDY    52  47  83 E10       29.99S
LAFAYETTE      CLOUDY    50  45  83 E10       30.02S
MADISON        CLOUDY    42  32  67 E9        30.08S
MILWAUKEE      MOCLDY    42  37  82 NE9       30.10S
$$






USA.gov is the U.S. government's official web portal to all federal, state and local government web resources and services.